Regional Weather Roundup
Issued by NWS

Home | Current Version | Previous Version | Text Only | Print | Product List | Glossary Off
Versions: 1 2 3 4 5 6 7 8 9 10 11 12 13 14 15 16 17 18 19 20 21 22 23 24 25 26 27 28 29 30 31 32 33 34 35 36 37 38 39 40 41 42 43 44 45 46 47 48 49 50

000
ASUS43 KMKX 261211
RWRWI

WISCONSIN REGIONAL WEATHER ROUNDUP
NATIONAL WEATHER SERVICE MILWAUKEE/SULLIVAN WI
700 AM CDT FRI AUG 26 2016

NOTE: "FAIR" INDICATES FEW OR NO CLOUDS BELOW 12,000 FEET WITH NO
SIGNIFICANT WEATHER AND/OR OBSTRUCTIONS TO VISIBILITY.

WIZ001-002-006>008-014>016-023>028-261300-
NORTHWEST WISCONSIN

CITY           SKY/WX    TMP DP  RH WIND       PRES   REMARKS
SUPERIOR ARPT  CLEAR     49  49  99 SW3       30.13R
6HR MIN TEMP:  49; 6HR MAX TEMP:  60;

ASHLAND        CLOUDY    56  54  93 W6        30.13R
6HR MIN TEMP:  54; 6HR MAX TEMP:  58;

HAYWARD        MOCLDY    49  48  97 CALM      30.15R FOG
6HR MIN TEMP:  48; 6HR MAX TEMP:  58;

SIREN          FOG       50  49  97 CALM      30.15S VSB 1/2
6HR MIN TEMP:  49; 6HR MAX TEMP:  58;

CUMBERLAND     CLEAR     50  48  93 CALM      30.16R FOG
RICE LAKE      FOG       50  49  96 CALM      30.17R VSB<1/4
6HR MIN TEMP:  49; 6HR MAX TEMP:  55;

CHETEK         NOT AVBL
LADYSMITH      CLEAR     54  53  97 CALM      30.17R
6HR MIN TEMP:  52; 6HR MAX TEMP:  57;

EAU CLAIRE     CLEAR     54  53  97 SW3       30.15R
6HR MIN TEMP:  53; 6HR MAX TEMP:  58;

MENOMONIE      CLEAR     53  52  95 CALM      30.17R
6HR MIN TEMP:  53; 6HR MAX TEMP:  59;

NEW RICHMOND   FOG       53  53 100 CALM      30.17R VSB<1/4
6HR MIN TEMP:  50; 6HR MAX TEMP:  55;

OSCEOLA        CLOUDY    50  50 100 CALM      30.19R
6HR MIN TEMP:  49; 6HR MAX TEMP:  55;

$$

WIZ003>005-009-010-017-018-261300-
NORTH CENTRAL WISCONSIN

CITY           SKY/WX    TMP DP  RH WIND       PRES   REMARKS
MANITOWISH WTR NOT AVBL
ARBOR VITAE    MOCLDY    57  56  95 W3        30.13R
6HR MIN TEMP:  53; 6HR MAX TEMP:  57;

WOODRUFF       MOCLDY    57  56  95 W3        30.13R
6HR MIN TEMP:  53; 6HR MAX TEMP:  57;

RHINELANDER    CLEAR     53  53 100 W6        30.14R
6HR MIN TEMP:  50; 6HR MAX TEMP:  54;

EAGLE RIVER    CLOUDY    53  53 100 CALM      30.11S
6HR MIN TEMP:  48; 6HR MAX TEMP:  53;

LAND O LAKES   PTCLDY    54  54  99 CALM      30.12R
6HR MIN TEMP:  50; 6HR MAX TEMP:  56;

PHILLIPS       CLEAR     52  52 100 CALM      30.14R
6HR MIN TEMP:  51; 6HR MAX TEMP:  55;

TOMAHAWK       CLEAR     49  48  97 W3        30.15R FOG
6HR MIN TEMP:  47; 6HR MAX TEMP:  51;

MEDFORD        FOG       48  48 100 CALM      30.15R VSB 1/2
6HR MIN TEMP:  47; 6HR MAX TEMP:  55;

MERRILL        CLEAR     50  50 100 W3        30.15R
6HR MIN TEMP:  49; 6HR MAX TEMP:  56;

$$

WIZ029-030-035-036-043>047-261300-
CENTRAL WISCONSIN

CITY           SKY/WX    TMP DP  RH WIND       PRES   REMARKS
WAUSAU         CLEAR     55  53  93 W6        30.14R
6HR MIN TEMP:  54; 6HR MAX TEMP:  59;

MOSINEE        CLEAR     52  52 100 VRB3      30.16R
MARSHFIELD     CLEAR     52  50  93 SW3       30.16R FOG
6HR MIN TEMP:  51; 6HR MAX TEMP:  57;

STEVENS POINT  CLEAR     55  53  91 CALM      30.16R
6HR MIN TEMP:  51; 6HR MAX TEMP:  59;

WAUPACA        CLEAR     56  55  97 CALM      30.15S
6HR MIN TEMP:  55; 6HR MAX TEMP:  65;

WAUTOMA        CLOUDY    54  53  97 CALM      30.17R
6HR MIN TEMP:  52; 6HR MAX TEMP:  61;

WISC RAPIDS    CLEAR     56  55  97 W3        30.17R
6HR MIN TEMP:  53; 6HR MAX TEMP:  59;

CAMP DOUGLAS   PTCLDY    50  50 100 CALM      30.16R
$$

WIZ011>013-019>022-031-037>040-048>050-261300-
NORTHEAST WISCONSIN

CITY           SKY/WX    TMP DP  RH WIND       PRES   REMARKS
ANTIGO         CLEAR     52  52  99 CALM      30.15R
6HR MIN TEMP:  50; 6HR MAX TEMP:  55;

SHAWANO        CLEAR     57  55  92 SW3       30.14R
OCONTO         NOT AVBL
STURGEON BAY   PTCLDY    58  56  93 CALM      30.12R
6HR MIN TEMP:  58; 6HR MAX TEMP:  66;

GREEN BAY      CLEAR     57  57 100 W6        30.13R
6HR MIN TEMP:  55; 6HR MAX TEMP:  61;

MANITOWOC      CLEAR     60  55  83 W7        30.14R
6HR MIN TEMP:  56; 6HR MAX TEMP:  65;

APPLETON       PTCLDY    55  55 100 W7        30.13R
CLINTONVILLE   CLEAR     54  52  94 SW3       30.14R
OSHKOSH        PTCLDY    59  55  87 W3        30.15R
6HR MIN TEMP:  58; 6HR MAX TEMP:  63;

$$

WIZ032>034-041-042-053>061-261300-
SOUTHWEST WISCONSIN

CITY           SKY/WX    TMP DP  RH WIND       PRES   REMARKS
LA CROSSE      CLEAR     59  57  93 SE3       30.17R
6HR MIN TEMP:  58; 6HR MAX TEMP:  64;

SPARTA         PTCLDY    49  49 100 CALM      30.18R
6HR MIN TEMP:  49; 6HR MAX TEMP:  55;

VIROQUA        CLEAR     55  55 100 CALM      30.18R
6HR MIN TEMP:  55; 6HR MAX TEMP:  60;

BOSCOBEL       FOG       60  59  96 CALM      30.18R VSB<1/4
6HR MIN TEMP:  58; 6HR MAX TEMP:  61;

PRAIRIE DU CHI CLOUDY    58  56  94 CALM      30.18R
6HR MIN TEMP:  57; 6HR MAX TEMP:  61;

PLATTEVILLE    CLOUDY    58  58 100 CALM      30.19R
6HR MIN TEMP:  57; 6HR MAX TEMP:  63;

$$

WIZ056-057-062-063-064-067-068-261300-
SOUTH CENTRAL WISCONSIN

CITY           SKY/WX    TMP DP  RH WIND       PRES   REMARKS
REEDSBURG      NOT AVBL
BARABOO/DELLS  MOCLDY    56  54  95 CALM      30.17R
6HR MIN TEMP:  55; 6HR MAX TEMP:  61;

LONE ROCK      FOG       59  58  96 CALM      30.18R VSB<1/4
6HR MIN TEMP:  57; 6HR MAX TEMP:  60;

MINERAL POINT  MOCLDY    61  59  94 CALM      30.19R
MADISON        CLOUDY    58  57  97 CALM      30.16R
6HR MIN TEMP:  57; 6HR MAX TEMP:  65;

MIDDLETON      CLOUDY    58  58 100 CALM      30.18R
6HR MIN TEMP:  56; 6HR MAX TEMP:  62;

WATERTOWN      CLOUDY    57  57 100 CALM      30.16S
6HR MIN TEMP:  56; 6HR MAX TEMP:  64;

MONROE         PTCLDY    61  57  88 N3        30.17S
JANESVILLE     MOCLDY    61  61 100 CALM      30.16R
$$

WIZ051-052-058>065-066-070>072-261300-
SOUTHEAST WISCONSIN

CITY           SKY/WX    TMP DP  RH WIND       PRES   REMARKS
MILWAUKEE      MOCLDY    65  58  78 NW6       30.15R
6HR MIN TEMP:  65; 6HR MAX TEMP:  72;

WAUKESHA       CLEAR     59  57  94 CALM      30.18R
MILWAUKEE/TIMM CLEAR     59  55  88 CALM      30.17R
RACINE         MOCLDY    63  59  87 NW6       30.17R
6HR MIN TEMP:  63; 6HR MAX TEMP:  67;

BURLINGTON     PTCLDY    55  55  99 CALM      30.16S
6HR MIN TEMP:  55; 6HR MAX TEMP:  61;

KENOSHA        CLOUDY    62  60  93 NW6       30.16R
6HR MIN TEMP:  60; 6HR MAX TEMP:  65;

FOND DU LAC    CLEAR     59  55  87 W5        30.16R
6HR MIN TEMP:  57; 6HR MAX TEMP:  64;

SHEBOYGAN      CLEAR     58  56  93 W3        30.14S
6HR MIN TEMP:  54; 6HR MAX TEMP:  65;

WEST BEND      CLEAR     59  55  88 CALM      30.16R
JUNEAU         PTCLDY    57  56  96 CALM      30.18R
6HR MIN TEMP:  56; 6HR MAX TEMP:  61;

$$

LSZ147-162-261300-
LAKE SUPERIOR

STATION/POSITION TIME  TEMP    WIND        PRES    WAVE
                       AIR SEA DIR/SP/G            HT/PER
                 (UTC) (F)     (DEG/KT/KT) (MB)    (FT/S)
W MID LAKE BUOY  1150   62 65  320/ 12/ 14 1017.9R   2/ 4
DEVILS ISLAND    1100   61     300/ 13/ 14 1019.0R
PORT WING        1140   59     210/  6/  8 1020.0R
SAXON HARBOR     1100   59     210/  7/ 10 1019.0
$$

LMZ867-665-643>646-261300-
LAKE MICHIGAN

STATION/POSITION TIME  TEMP    WIND        PRES    WAVE
                       AIR SEA DIR/SP/G            HT/PER
                 (UTC) (F)     (DEG/KT/KT) (MB)    (FT/S)
CHAMBERS ISLAND  1100   61     250/  4/  8 1018.6R
N MID LAKE BUOY  1150   65 70  280/ 10/ 14 1018.2R   2/ 4
NORTHPORT PIER   1100   64     290/  7/ 10 1018.6R
SISTER BAY       1037   64     330/ 14/ 15   N/A
KEWAUNEE LAKESHO 1100   59     290/  3/  4 1019.0R
SHEBOYGANC1F1C2F2C3F3C4F4C5F5C6F6C7F7C8M1C9M2Ca!



USA.gov is the U.S. government's official web portal to all federal, state and local government web resources and services.